sat.trackr.live / text

‹ back to catalog

STARLINK-37046

NORAD 68102 · 2026-044B

PAYLOAD ACTIVE UNKNOWN

§ Identity

Operator
Country
US
Launch date
2026-03-08
Launch site
AFWTR
Launch vehicle
Mass (kg)
RCS (m²)

Purposes: comms

External: N2YO · Heavens-Above · Gunter

§ Orbital elements

Epoch: 2026-05-25T03:09:03.780000Z

Period
93.91 min
Inclination
97.2823°
Eccentricity
0.0001584
Mean motion
15.33450231 rev/d
Perigee alt
464.4 km
Apogee alt
466.6 km
Semi-major
6,843.7 km
B*
5.6949e-4
RAAN
105.6950°
Arg perigee
98.6777°
Mean anomaly
261.4645°
Rev number
1,329

§ Raw data

STARLINK-370461 68102U 26044B   26145.13129375  .00018358  00000+0  56949-3 0  99922 68102  97.2823 105.6950 0001584  98.6777 261.4645 15.33450231 13298

JSON: /api/v1/satellites/68102 · /tle

For live sub-satellite position, see the globe view (requires WebGL).

§ Visibility from observer

Set your observer location to see the next 7 days of passes ≥ 10°. The values pass through the URL so the page stays shareable.

No JS? Fill the form by hand. The geolocation button needs JavaScript.